When you browse on this site, cookies collect data to enhance your experience and personalize the content and advertising you see.
Visit our Privacy Policy to learn more. By continuing to use the site, you agree to this use of cookies and data.

Hourly Weather Bissau

Today, 9 July, Thursday

Time Temperature Precipitation Wind Pressure Humidity
00:00 +28°C° 0 mm 5 mps 757 mmHg 87%
01:00 +28°C° 0 mm 4 mps 756 mmHg 88%
02:00 +28°C° 0 mm 4 mps 756 mmHg 89%
03:00 +28°C° 0 mm 5 mps 756 mmHg 88%
04:00 +28°C° 0 mm 6 mps 756 mmHg 88%
05:00 +28°C° 0 mm 6 mps 756 mmHg 87%
06:00 +29°C° 0 mm 6 mps 757 mmHg 82%
07:00 +30°C° 0 mm 5 mps 757 mmHg 77%
08:00 +30°C° 0 mm 5 mps 757 mmHg 72%
09:00 +33°C° 0 mm 5 mps 757 mmHg 66%
10:00 +34°C° 0 mm 4 mps 757 mmHg 60%
11:00 +36°C° 0 mm 4 mps 757 mmHg 54%
12:00 +36°C° 0 mm 5 mps 757 mmHg 54%
13:00 +36°C° 0 mm 5 mps 757 mmHg 53%
14:00 +36°C° 0 mm 6 mps 756 mmHg 53%
15:00 +35°C° 0 mm 6 mps 756 mmHg 58%
16:00 +34°C° 0 mm 6 mps 756 mmHg 64%
17:00 +32°C° 0 mm 6 mps 756 mmHg 69%
18:00 +32°C° 0 mm 6 mps 756 mmHg 72%
19:00 +30°C° 0 mm 5 mps 757 mmHg 75%
20:00 +29°C° 0 mm 5 mps 757 mmHg 78%
21:00 +29°C° 0.1 mm 4 mps 758 mmHg 79%
22:00 +29°C° 0.1 mm 4 mps 758 mmHg 80%
23:00 +29°C° 0.1 mm 4 mps 758 mmHg 81%

Tomorrow, 10 July, Friday

Time Temperature Precipitation Wind Pressure Humidity
00:00 +29°C° 0.1 mm 4 mps 758 mmHg 83%
01:00 +28°C° 0.1 mm 3 mps 757 mmHg 84%
02:00 +28°C° 0.1 mm 3 mps 757 mmHg 85%
03:00 +28°C° 0.2 mm 3 mps 757 mmHg 86%
04:00 +28°C° 0.2 mm 3 mps 757 mmHg 87%
05:00 +28°C° 0.2 mm 3 mps 756 mmHg 87%
06:00 +29°C° 0.3 mm 3 mps 757 mmHg 83%
07:00 +29°C° 0.3 mm 3 mps 757 mmHg 80%
08:00 +30°C° 0.3 mm 3 mps 758 mmHg 76%
09:00 +32°C° 1.4 mm 4 mps 758 mmHg 73%
10:00 +32°C° 1.4 mm 4 mps 758 mmHg 71%
11:00 +33°C° 1.4 mm 4 mps 758 mmHg 69%
12:00 +33°C° 0.7 mm 4 mps 757 mmHg 68%
13:00 +33°C° 0.7 mm 5 mps 757 mmHg 67%
14:00 +34°C° 0.7 mm 5 mps 756 mmHg 66%
15:00 +33°C° 1.1 mm 6 mps 756 mmHg 69%
16:00 +32°C° 1.1 mm 6 mps 756 mmHg 72%
17:00 +30°C° 1.1 mm 6 mps 756 mmHg 75%
18:00 +30°C° 1.2 mm 6 mps 756 mmHg 79%
19:00 +29°C° 1.2 mm 5 mps 757 mmHg 82%
20:00 +28°C° 1.2 mm 5 mps 758 mmHg 85%
21:00 +28°C° 0.7 mm 5 mps 758 mmHg 86%
22:00 +28°C° 0.7 mm 5 mps 758 mmHg 86%
23:00 +28°C° 0.7 mm 5 mps 758 mmHg 87%

Day after tomorrow, 11 July, Saturday

Time Temperature Precipitation Wind Pressure Humidity
00:00 +28°C° 1 mm 5 mps 758 mmHg 87%
01:00 +27°C° 1 mm 5 mps 757 mmHg 87%
02:00 +27°C° 1 mm 5 mps 757 mmHg 88%
03:00 +27°C° 1.2 mm 4 mps 757 mmHg 88%
04:00 +27°C° 1.2 mm 4 mps 757 mmHg 88%
05:00 +27°C° 1.2 mm 4 mps 757 mmHg 88%
06:00 +27°C° 0 mm 3 mps 757 mmHg 87%
07:00 +28°C° 0 mm 2 mps 757 mmHg 86%
08:00 +28°C° 0 mm 2 mps 757 mmHg 84%
09:00 +29°C° 1.2 mm 2 mps 758 mmHg 81%
10:00 +29°C° 1.2 mm 3 mps 758 mmHg 78%
11:00 +30°C° 1.2 mm 3 mps 758 mmHg 75%
12:00 +30°C° 1.1 mm 4 mps 758 mmHg 76%
13:00 +30°C° 1.1 mm 5 mps 758 mmHg 76%
14:00 +29°C° 1.1 mm 6 mps 757 mmHg 77%
15:00 +29°C° 0.6 mm 6 mps 757 mmHg 80%
16:00 +28°C° 0.6 mm 6 mps 757 mmHg 82%
17:00 +28°C° 0.6 mm 6 mps 757 mmHg 85%
18:00 +28°C° 0.4 mm 6 mps 757 mmHg 86%
19:00 +27°C° 0.4 mm 6 mps 758 mmHg 88%
20:00 +27°C° 0.4 mm 6 mps 758 mmHg 89%
21:00 +27°C° 0.6 mm 5 mps 759 mmHg 89%
22:00 +27°C° 0.6 mm 5 mps 759 mmHg 90%
23:00 +27°C° 0.6 mm 4 mps 759 mmHg 90%

12 July, Sunday

Time Temperature Precipitation Wind Pressure Humidity
00:00 +27°C° 2.1 mm 5 mps 759 mmHg 90%
01:00 +27°C° 2.1 mm 5 mps 758 mmHg 91%
02:00 +27°C° 2.1 mm 5 mps 758 mmHg 91%
03:00 +26°C° 2 mm 4 mps 758 mmHg 92%
04:00 +26°C° 2 mm 4 mps 758 mmHg 92%
05:00 +26°C° 2 mm 3 mps 758 mmHg 93%
06:00 +27°C° 1.2 mm 3 mps 758 mmHg 90%
07:00 +28°C° 1.2 mm 3 mps 759 mmHg 87%
08:00 +28°C° 1.2 mm 3 mps 759 mmHg 85%
09:00 +29°C° 2.3 mm 3 mps 759 mmHg 83%
10:00 +29°C° 2.3 mm 4 mps 759 mmHg 81%
11:00 +30°C° 2.3 mm 4 mps 759 mmHg 80%
12:00 +30°C° 1.9 mm 4 mps 759 mmHg 80%
13:00 +30°C° 1.9 mm 5 mps 758 mmHg 80%
14:00 +30°C° 1.9 mm 5 mps 758 mmHg 80%
15:00 +30°C° 1.5 mm 5 mps 758 mmHg 81%
16:00 +29°C° 1.5 mm 5 mps 758 mmHg 83%
17:00 +28°C° 1.5 mm 5 mps 758 mmHg 85%
18:00 +28°C° 0.4 mm 5 mps 758 mmHg 87%
19:00 +28°C° 0.4 mm 4 mps 759 mmHg 89%
20:00 +27°C° 0.4 mm 3 mps 759 mmHg 91%
21:00 +27°C° 0.7 mm 3 mps 759 mmHg 91%
22:00 +27°C° 0.7 mm 3 mps 760 mmHg 91%
23:00 +27°C° 0.7 mm 3 mps 760 mmHg 90%

13 July, Monday

Time Temperature Precipitation Wind Pressure Humidity
00:00 +27°C° 0.9 mm 3 mps 759 mmHg 90%
01:00 +27°C° 0.9 mm 3 mps 759 mmHg 90%
02:00 +27°C° 0.9 mm 3 mps 758 mmHg 90%
03:00 +27°C° 1.2 mm 2 mps 758 mmHg 91%
04:00 +26°C° 1.2 mm 2 mps 758 mmHg 93%
05:00 +26°C° 1.2 mm 2 mps 758 mmHg 94%
06:00 +27°C° 0.4 mm 2 mps 759 mmHg 90%
07:00 +28°C° 0.4 mm 1 mps 759 mmHg 86%
08:00 +29°C° 0.4 mm 1 mps 759 mmHg 83%
09:00 +29°C° 0.5 mm 1 mps 759 mmHg 80%
10:00 +30°C° 0.5 mm 1 mps 760 mmHg 77%
11:00 +29°C° 0.5 mm 0 mps 760 mmHg 74%
12:00 +31°C° 1.1 mm 1 mps 759 mmHg 72%
13:00 +32°C° 1.1 mm 2 mps 759 mmHg 71%
14:00 +33°C° 1.1 mm 3 mps 758 mmHg 69%
15:00 +31°C° 0.8 mm 3 mps 758 mmHg 74%
16:00 +30°C° 0.8 mm 4 mps 758 mmHg 80%
17:00 +28°C° 0.8 mm 4 mps 758 mmHg 85%
18:00 +28°C° 0.4 mm 4 mps 758 mmHg 86%
19:00 +28°C° 0.4 mm 4 mps 759 mmHg 87%
20:00 +27°C° 0.4 mm 4 mps 759 mmHg 89%
21:00 +27°C° 0.4 mm 4 mps 759 mmHg 89%
22:00 +27°C° 0.4 mm 3 mps 759 mmHg 90%
23:00 +27°C° 0.4 mm 3 mps 760 mmHg 90%

14 July, Tuesday

Time Temperature Precipitation Wind Pressure Humidity
00:00 +27°C° 0.4 mm 3 mps 759 mmHg 90%
01:00 +27°C° 0.4 mm 3 mps 759 mmHg 91%
02:00 +27°C° 0.4 mm 3 mps 758 mmHg 91%
03:00 +27°C° 0.8 mm 3 mps 758 mmHg 91%
04:00 +27°C° 0.8 mm 3 mps 758 mmHg 91%
05:00 +26°C° 0.8 mm 2 mps 758 mmHg 90%
06:00 +27°C° 0.1 mm 2 mps 758 mmHg 86%
07:00 +29°C° 0.1 mm 2 mps 759 mmHg 82%
08:00 +30°C° 0.1 mm 2 mps 759 mmHg 78%
09:00 +31°C° 0.9 mm 1 mps 759 mmHg 74%
10:00 +32°C° 0.9 mm 1 mps 759 mmHg 70%
11:00 +33°C° 0.9 mm 1 mps 758 mmHg 65%
12:00 +32°C° 2.3 mm 1 mps 758 mmHg 71%
13:00 +31°C° 2.3 mm 2 mps 757 mmHg 76%
14:00 +29°C° 2.3 mm 3 mps 757 mmHg 82%
15:00 +29°C° 0.6 mm 3 mps 757 mmHg 82%
16:00 +29°C° 0.6 mm 4 mps 756 mmHg 83%
17:00 +29°C° 0.6 mm 4 mps 756 mmHg 84%
18:00 +28°C° 0.3 mm 4 mps 757 mmHg 85%
19:00 +28°C° 0.3 mm 4 mps 757 mmHg 85%
20:00 +28°C° 0.3 mm 4 mps 758 mmHg 86%
21:00 +28°C° 0.8 mm 4 mps 758 mmHg 87%
22:00 +27°C° 0.8 mm 4 mps 758 mmHg 88%
23:00 +27°C° 0.8 mm 4 mps 758 mmHg 89%
Show more